Weather Roundup
Issued by NWS Springfield, MO

Home | Current Version | Previous Version | Text Only | Print | Product List | Glossary On
Versions: 1 2 3 4 5 6 7 8 9 10 11 12 13 14 15 16 17 18 19 20 21 22 23 24 25 26 27 28 29 30 31 32 33 34 35 36 37 38 39 40 41 42 43 44 45 46 47 48 49 50
000
NZUS99 KSGF 210307
HRRSGF

HOURLY WEATHER
NATIONAL WEATHER SERVICE SPRINGFIELD MO
1000 PM CDT WED AUG 20 2014

......SGF CWA......

CITY           SKY/WX    TMP DP  RH WIND       PRES   REMARKS
SPRINGFIELD    CLEAR     80  62  54 S9        29.97R
JOPLIN         CLEAR     81  62  52 S13       29.93R
WEST PLAINS    MOCLDY    82  58  43 SW5       30.03R
ROLLA          MOCLDY    74  68  81 E13       29.96R
OSAGE BEACH    CLEAR     77  72  83 E3        29.95R
BRANSON        CLEAR     79  66  65 S7        30.01R

......SURROUNDING SGF CWA......

CITY           SKY/WX    TMP DP  RH WIND       PRES   REMARKS
CHANUTE        CLEAR     82  68  62 S15       29.90R
PARSONS        CLEAR     82  68  62 S9        29.91R
COFFEYVILLE    CLEAR     82  69  64 S10       29.89R
EMPORIA        PTCLDY    80  66  62 S16       29.85R
GROVE OK       CLEAR     81  68  65 S7        29.94R
ROGERS AR      CLEAR     79  65  62 S10       30.00R
SILOAM SPRINGS CLEAR     79  64  61 S12       29.99R
HARRISON AR    CLEAR     77  68  73 S10       30.01R
NEAR YELLVILLE CLEAR     79  64  61 CALM      30.00R

......KANSAS AND MISSOURI......

CITY           SKY/WX    TMP DP  RH WIND       PRES   REMARKS
KANSAS CTY INT CLEAR     81  71  71 S12       29.87R
DOWNTOWN KC    CLEAR     86  68  54 S10       29.86R
COLUMBIA       CLEAR     75  73  93 SE8       29.94R
SEDALIA        CLEAR     78  71  79 S8        29.92R
ST JOSEPH      CLEAR     80  74  81 S8        29.83R
ST LOUIS       CLOUDY    76  70  82 E6        29.99R
SPIRIT OF STL  CLOUDY    74  72  93 NE6       29.96R
KIRKSVILLE     CLEAR     78  74  87 S8        29.91R
WICHITA        PTCLDY    83  64  52 S13       29.84R
TOPEKA         PTCLDY    87  67  51 S10       29.83R HX  90
OLATHE         CLEAR     79  68  69 S8        29.88R

......TENNESSEE......

CITY           SKY/WX    TMP DP  RH WIND       PRES   REMARKS
MEMPHIS        CLEAR     83  72  69 S8        30.06R
NASHVILLE      LGT RAIN  72  71  97 S3        30.10R

......ARKANSAS.......

CITY           SKY/WX    TMP DP  RH WIND       PRES   REMARKS
FAYETTEVILLE   CLEAR     78  67  68 S12       30.00R
FT SMITH       CLEAR     83  71  67 SE5       29.96R
LITTLE ROCK    CLEAR     81  74  79 SE5       30.01R

......OKLAHOMA.......

CITY           SKY/WX    TMP DP  RH WIND       PRES   REMARKS
TULSA          PTCLDY    86  69  56 S14G23    29.89R HX  90
PONCA CITY     CLEAR     87  66  49 S15G22    29.86R
MCALESTER      CLEAR     83  70  64 SE6       29.95R
OKLAHOMA CITY  CLEAR     85  63  47 S14       29.90R

......IOWA............

CITY           SKY/WX    TMP DP  RH WIND       PRES   REMARKS
DES MOINES     PTCLDY    78  73  84 S7        29.82S
QUAD CITIES    PTCLDY    70  68  93 SE7       29.91R

......ILLINOIS........

CITY           SKY/WX    TMP DP  RH WIND       PRES   REMARKS
QUINCY         CLEAR     78  75  90 S9        29.91S
CHICAGO        MOCLDY    76  67  73 W7        29.93R



USA.gov is the U.S. government's official web portal to all federal, state and local government web resources and services.